Velovelo
Português Nederlands 日本語 中文
Español English čeština slovenčina
русский italiano polski norsk
français Deutsch svenska عربي
 
 Página anterior
 Enviar a un amigo
 Para imprimir
 ---> Marmotte 2007 : class du 3001ème au 4003ème

ClassNomPrénom.Cat.C.Cat..Temps..
3001 MOUKARZEL NUMAIR CARLOS F 403 10:54:53
3002 CHASTELLAIN VICTORIA A 28 10:55:00
3003 GEORGE MARY LAURE A 29 10:55:01
3004 BONEL JEREMIE D 945 10:55:07
3005 RIVETTI ENNIO E 1 089 10:55:14
3006 ELGAARD JORGEN F 404 10:55:15
3007 HAASE FRANK E 1 090 10:55:18
3008 VAN DOOREN ROB D 946 10:55:19
3009 VAN EIJK TON F 405 10:55:32
3010 PRATS SANCHEZ JOSE ANTONIO F 406 10:55:35
3011 BRIGGEMAN A. D 947 10:55:42
3012 MAURITS FRED E 1 091 10:55:49
3013 MAES IVAN E 1 092 10:55:49
3014 ROBERTSON GARNER E 1 093 10:55:51
3015 MONAGHAN FRASER D 948 10:55:51
3016 FANGET RENE E 1 094 10:55:51
3017 TRIGOT JEAN LUC E 1 095 10:56:01
3018 OLARIAGU ALDALUR INAKI F 407 10:56:06
3019 RENARD DIDIER G 65 10:56:24
3020 JORGENSEN POVL ERIK F 408 10:56:27
3021 HANSEN TOMMI F 409 10:56:29
3022 KOELEWIJN PIM F 410 10:56:30
3023 DE BRUYNE DIRK E 1 096 10:56:35
3024 NOBEN ALAIN E 1 097 10:56:45
3025 OLMO RAMOS FRANCISCO JAVIER D 949 10:56:58
3026 PEREZ RODRIGUEZ JOSE MARIA F 411 10:57:01
3027 EPINAT ALEXANDRE D 950 10:57:03
3028 GARCIA MACIAS JORGE ANTONIO D 951 10:57:15
3029 VAN WETTERE ANTOINE G 66 10:57:29
3030 HUSKEN RIK E 1 098 10:57:31
3031 BELMONTE JORDI C 416 10:57:31
3032 VANNSON ERIC D 952 10:57:41
3033 VAN BALLEGOOIJEN HARALD D 953 10:57:47
3034 KIRKHAM STUART E 1 099 10:57:48
3035 FABER STEVE D 954 10:58:01
3036 CUMBERLAND COLIN D 955 10:58:06
3037 KOETJE KLAAS F 412 10:58:16
3038 SHEPHERD BRIAN F 413 10:58:19
3039 MERIGHI ARON E 1 100 10:58:20
3040 SANDERS DAAN C 417 10:58:22
3041 BATAIL MICHEL F 414 10:58:30
3042 VAN PELT PETER F 415 10:58:31
3043 NABBEN JOEP E 1 101 10:58:31
3044 LANGELAAN INGO E 1 102 10:58:33
3045 VAN DE WIEL LAMBERT G 67 10:58:35
3046 VAN ZANTEN LUC E 1 103 10:58:40
3047 LEE JOHN D 956 10:58:43
3048 ALRIC JANY El 4 10:58:48
3049 BOUW ERIK C 418 10:58:49
3050 LEDEGEN THOMAS C 419 10:58:52
3051 LEK AAD E 1 104 10:59:00
3052 DEMARTEAU SYLVESTER D 957 10:59:01
3053 WOUTER NIKS D 958 10:59:03
3054 SAFRAN BILL E 1 105 10:59:10
3055 BRIANCON JEAN CLAUDE D 959 10:59:14
3056 SNIJDERS TIM C 420 10:59:15
3057 WAASDORP ERIK F 416 10:59:21
3058 VAN DE VOORT GERARD E 1 106 10:59:31
3059 COOIJMANS JOS E 1 107 10:59:34
3060 VAN LEENGOED VICTOR HUGO D 960 10:59:36
3061 GARELLI JEAN MARIE F 417 10:59:37
3062 CEBREIRO HURTADO JOSE E 1 108 10:59:38
3063 VOS ARNO E 1 109 10:59:43
3064 VERDOODT DANIEL E 1 110 10:59:49
3065 WALRAVENS JAN D 961 11:00:03
3066 LORITE MUNOZ DAVID D 962 11:00:07
3067 GROENVELD FEMKE A 30 11:00:09
3068 VELDINK HENK D 963 11:00:10
3069 SUTTON PAUL J 17 11:00:12
3070 REES GRAHAM F 418 11:00:23
3071 VAN DEN BERGE GUY D 964 11:00:23
3072 PEREZ JAVIER ALFONSO E 1 111 11:00:27
3073 PEREZ ALFONSO ANTONIO J 18 11:00:28
3074 BONESTROO STEVEN F 419 11:00:29
3075 DENHAEN FILIP E 1 112 11:00:31
3076 SKOGMANN FRODE D 965 11:00:34
3077 MARTENS WILL C 421 11:00:49
3078 JOHNSON MARK D 966 11:00:55
3079 WIJNGAARDEN KEK D 967 11:00:56
3080 ARIJS GUY E 1 113 11:01:11
3081 BUFFET MARIE ODILE B 4 11:01:21
3082 JACOBSEN PER W. E 1 114 11:01:30
3083 ROYLE DANIEL D 968 11:01:30
3084 WASSINK RONNIE D 969 11:01:38
3085 VAN DE BROEK FRANK F 420 11:01:43
3086 ABONNEAU SEBASTIEN J 19 11:01:52
3087 TEIJNS TON D 970 11:01:54
3088 DE HOON PAUL F 421 11:02:02
3089 GRISARD JEAN LUC E 1 115 11:02:13
3090 RENOU ALBAN D 971 11:02:17
3091 ZWANENBURG CHRIS C 422 11:02:18
3092 PETERSEN JONAS D 972 11:02:26
3093 COET JEAN PIERRE F 422 11:02:50
3094 BERNTSEN CLEMENS E 1 116 11:03:05
3095 BERGH VAN DEN CHRISTIAN D 973 11:03:08
3096 DAGLIA MARTIAL E 1 117 11:03:11
3097 PEREZ MENCHERO MIKEL IKER H 3 11:03:21
3098 URRUTIA COMABELLA SERGIO E 1 118 11:03:21
3099 WORTMAN BART G 68 11:03:26
3100 LINDE MARTIN E 1 119 11:03:43
3101 VAN VELTHOOVEN CHARLES F 423 11:03:53
3102 LARSEN JESPER F 424 11:03:53
3103 BRAS DOMINIQUE E 1 120 11:03:54
3104 KRZEMINSKI MICKALE C 423 11:03:57
3105 SCHRAGE YVONNE A 31 11:04:00
3106 DE KWAASTENIET BART C 424 11:04:00
3107 ERNST FREELX C 425 11:04:08
3108 DE GROOT ARIE E 1 121 11:04:12
3109 PEDERSEN JESPER D 974 11:04:16
3110 ERNST FRANCS F 425 11:04:17
3111 BOILLOT ANDRE G 69 11:04:20
3112 XAVIER SUBINA SALVANS D 975 11:04:20
3113 BYVOET WILHELMUS F 426 11:04:23
3114 JANSSEN MARCEL E 1 122 11:04:26
3115 VAN DE VYVER LUC E 1 123 11:04:37
3116 LAMPETER ERNST F 427 11:04:39
3117 FAMY FRANCOIS D 976 11:04:43
3118 RUGGERI STEFANO D 977 11:04:53
3119 STOCCO PIETRO D 978 11:05:04
3120 FORNASARI GINO E 1 124 11:05:12
3121 HANSEN KELD E 1 125 11:05:20
3122 TRUM ETIENNE D 979 11:05:24
3123 SILLEVIS SMITT PETER E 1 126 11:05:35
3124 SALAMANCA AUZMENDI SERGIO D 980 11:05:39
3125 LOUIS SEBASTIEN C 426 11:05:43
3126 WHITTLE BRENT F 428 11:05:48
3127 VAN DOREMALEN JAN F 429 11:05:48
3128 TALBAUX LAURENT E 1 127 11:05:56
3129 JASPER JAMES D 981 11:06:02
3130 WEEKERS BEN E 1 128 11:06:07
3131 MEUWISSEN MARTIJN D 982 11:06:22
3132 LAURENT FREDERIC D 983 11:06:34
3133 MARZOLF HARALD C 427 11:06:37
3134 JEANJEAN DANIEL F 430 11:06:38
3135 MURPHY DEREK E 1 129 11:06:44
3136 BOUCHER PHILIPPE F 431 11:06:44
3137 ROEDER THOMAS E 1 130 11:07:12
3138 VAN BAKEL BAS E 1 131 11:07:14
3139 VLIEKS PAUL E 1 132 11:07:17
3140 WOLFF GABRIEL E 1 133 11:07:19
3141 FIOLET ETIENNE E 1 134 11:07:26
3142 ERIKSSON HELGE F 432 11:07:31
3143 MEEL HANS E 1 135 11:07:38
3144 BOSMANS PATRICK E 1 136 11:07:40
3145 BEST ISABEL AB 37 11:07:41
3146 BOUDEWIJNS FRANS F 433 11:07:48
3147 MENEROUX JEAN LOUIS G 70 11:07:51
3148 PEAKE ANDREW D 984 11:07:54
3149 BOER ALBERT G 71 11:07:55
3150 JEFFERIES ANDY D 985 11:07:57
3151 STAES DAVE D 986 11:07:57
3152 VAN HOYWEGHE KRIS C 428 11:07:58
3153 JANSEN JOS E 1 137 11:08:05
3154 MOHR RASMUS D 987 11:08:12
3155 BERGSMA ALEX D 988 11:08:31
3156 GODIN PASCAL E 1 138 11:08:32
3157 ASIER SESMA D 989 11:08:41
3158 DIXON MICHAEL E 1 139 11:08:43
3159 BUSI THIERRY E 1 140 11:08:45
3160 RAINOFF BRANDON F 434 11:08:48
3161 CARELS KOEN D 990 11:09:01
3162 HELSLOOT THOMAS D 991 11:09:13
3163 LIMPER LOUIS F 435 11:09:14
3164 STREEF TON F 436 11:09:17
3165 BASELAAR PETER F 437 11:09:22
3166 VERMEER BEN E 1 141 11:09:22
3167 SCHRIJVERS AD E 1 142 11:09:27
3168 NEES STEVEN D 992 11:09:27
3169 VAN AUBEL GUIDO C 429 11:09:29
3170 SUBIOTTO ROMANO E 1 143 11:09:31
3171 LAUGENS PETER E 1 144 11:09:32
3172 STUART COLIN E 1 145 11:09:37
3173 VEHENT GLENN C 430 11:09:42
3174 STUART IAN E 1 146 11:09:43
3175 KRISTOFFERSEN HANS ERIK F 438 11:09:48
3176 KUPER ANNE B 5 11:09:50
3177 DE ZEEUW MARCO D 993 11:10:01
3178 BJOERN JOHN E 1 147 11:10:02
3179 NERSTING CLAUS D 994 11:10:05
3180 VERVOORT PAUL E 1 148 11:10:11
3181 VAN DE GIESSEN ARNOUD D 995 11:10:21
3182 TAYLOR MARCUS D 996 11:10:22
3183 SANDERS PAUL D 997 11:10:31
3184 LIKET KEES F 439 11:10:59
3185 LEGROS MARC F 440 11:11:05
3186 TAPPER GERALD F 441 11:11:07
3187 GIBBON MARK C 431 11:11:14
3188 ALONSO MARCO ANTONI E 1 149 11:11:15
3189 FENNEMA ANTON E 1 150 11:11:16
3190 MAELFAIT PHILIP C 432 11:11:29
3191 BETTS MARCUS D 998 11:11:31
3192 LOWE ANTHONY E 1 151 11:11:32
3193 VAN DEN ELZEN RICHARD E 1 152 11:11:42
3194 VAN VAERENBERGH EDDY F 442 11:11:43
3195 VILLA MAURO E 1 153 11:11:58
3196 EECKHOUT LUC E 1 154 11:12:12
3197 VAN DRIESSCHE HERMAN E 1 155 11:12:20
3198 MEREDITH ALEX C 433 11:12:22
3199 MUGGLETON PETER E 1 156 11:12:26
3200 VALLE BENITO D 999 11:12:29
3201 BIKUNA LUIS MARI D 1000 11:12:29
3202 DE BOER REMCO D 1001 11:12:34
3203 WYNANTS WIM D 1002 11:12:35
3204 RANSCHAERT ERIK E 1 157 11:12:37
3205 DE BRUYN DAVID D 1003 11:12:38
3206 ASBERG WERNER E 1 158 11:12:43
3207 RIZZO LUIGI F 443 11:12:48
3208 LEDRU JEAN MICHEL E 1 159 11:12:52
3209 FAURE BRIGITTE AB 38 11:12:52
3210 SPADERO MAURIZZIO E 1 160 11:12:52
3211 VUAGNIAUX NIGEL E 1 161 11:12:55
3212 STEWART DEXTER F 444 11:13:01
3213 BERNINI MASSIMILIANO E 1 162 11:13:04
3214 CARLONI VITTORIO D 1004 11:13:05
3215 BILLAUD MARC F 445 11:13:05
3216 KRUIJWIJK WILLEM C 434 11:13:11
3217 PERSOON RONALD E 1 163 11:13:15
3218 HERNANDEZ JUAN CARLOS E 1 164 11:13:17
3219 SCHRAA BAS F 446 11:13:19
3220 NIJLAND MARINUS F 447 11:13:20
3221 ROLLAND GERARD D 1005 11:13:21
3222 TRIMPENEERS LIESBET A 32 11:13:38
3223 VAN BOXLAER ANDRLES C 435 11:13:41
3224 DIJKSTRA ARIEN D 1006 11:13:45
3225 PICAZO GILBERT G 72 11:13:53
3226 VAN DE WETERINGE BUYS FRANK E 1 165 11:14:06
3227 PELTIER FRANCIS G 73 11:14:21
3228 VAN BERKEL LEENDERT LEONARD C 436 11:14:24
3229 DIJKSTERHUIS HENK E 1 166 11:14:24
3230 GILLET GERMAIN F 448 11:14:25
3231 SCHOFFELEN WIEL F 449 11:14:27
3232 SVART JOHN E 1 167 11:14:34
3233 CAIRNS ADRIAN D 1007 11:14:38
3234 ZEESTRATEN TED F 450 11:14:46
3235 VAN DIEVEL MARC E 1 168 11:14:50
3236 MARTINI ROGER G 74 11:14:59
3237 ROUFS MICHEL F 451 11:15:27
3238 MUNOZ ALCARAZ JAIME E 1 169 11:15:42
3239 MERTENS ALEXANDER D 1008 11:15:55
3240 ROELS JEAN PIERRE E 1 170 11:16:01
3241 VERHAEGEN KURT E 1 171 11:16:03
3242 ICARDI MICHEL E 1 172 11:16:13
3243 MEIJER RIK E 1 173 11:16:25
3244 VOET WARD C 437 11:16:28
3245 VAN HEST EDWIN E 1 174 11:16:29
3246 REA JOHN CRAIG F 452 11:16:29
3247 GROEN RUTGER C 438 11:16:37
3248 STORMS JOEP D 1009 11:16:41
3249 ALEGRE CARLOS D 1010 11:16:44
3250 VAN DRUNEN ERIC E 1 175 11:16:45
3251 REIMERT GIEL D 1011 11:16:58
3252 SWAENEN LUC E 1 176 11:17:00
3253 DE VAZELHES JUST E 1 177 11:17:12
3254 DONSELAAR STEFAN D 1012 11:17:14
3255 NIEUWENHUIS MITCHEL C 439 11:17:20
3256 VAN DOORM RONALD E 1 178 11:17:24
3257 DIJKS HARMEN E 1 179 11:17:26
3258 ROBBEN DIANE AB 39 11:17:28
3259 KRUL JOHAN E 1 180 11:17:30
3260 DE WIT AD F 453 11:17:32
3261 VAN KATS LEX F 454 11:17:33
3262 ROOS PETER D 1013 11:17:44
3263 COLOMER JUDITH A 33 11:17:49
3264 LANGHOUT NIELS C 440 11:17:51
3265 BREBION PHILIPPE E 1 181 11:17:52
3266 VIOLAN JORDI D 1014 11:17:53
3267 GERRITSEN REMCO E 1 182 11:18:02
3268 SORENSEN CLAUS F 455 11:18:02
3269 CHALOIN GILLES F 456 11:18:03
3270 PICCARDO STEFANO D 1015 11:18:06
3271 SCHEEPERS FERDINAND E 1 183 11:18:07
3272 MORENA GARCIA JUAN RAMON D 1016 11:18:08
3273 LOPEZ SESMA MANUEL E 1 184 11:18:21
3274 VERROKEN STEVEN D 1017 11:18:23
3275 VERROKEN DAVY C 441 11:18:23
3276 MEESTERS WOUTER D 1018 11:18:36
3277 SOLLIE KOEN F 457 11:18:36
3278 GORDON ANDREW E 1 185 11:18:37
3279 BOELHOUWER VINCENT E 1 186 11:18:46
3280 VOGELS RIAN AB 40 11:18:48
3281 BEVAN ANTHONY E 1 187 11:18:48
3282 TRAPPENIERS DIRK E 1 188 11:18:50
3283 GONZALEZ VARELA JAVIER D 1019 11:18:59
3284 VAN HAEREN HANS E 1 189 11:19:02
3285 HOVERS MAARTEN D 1020 11:19:12
3286 PROSPERI SILVANO F 458 11:19:17
3287 TENTATI ROLANDO G 75 11:19:18
3288 PAUW MAARTEN C 442 11:19:19
3289 BULLI FRANCO E 1 190 11:19:20
3290 KILDEBORG JENSEN TIM E 1 191 11:19:21
3291 GUERINEAU EMMANUEL D 1021 11:19:25
3292 ALBERTS RENE D 1022 11:19:42
3293 MEIJERINK JEROEN C 443 11:19:43
3294 COULCHER DAN D 1023 11:19:46
3295 VAN BOVEN WILLEKE C 444 11:19:58
3296 VAN RAEMDONCK STEFAN C 445 11:20:11
3297 THOMAS STAN F 459 11:20:18
3298 GROOTJANS WARD C 446 11:20:18
3299 MANDIOLA INAKI E 1 192 11:20:28
3300 HOUDANT LOIC D 1024 11:20:40
3301 FRIAS TEJADA JOSE MANUEL E 1 193 11:20:40
3302 GARY JOHNSON D 1025 11:20:44
3303 KORNELISSE KEES F 460 11:20:45
3304 DONDERWINKEL GERRIT JAN D 1026 11:21:11
3305 SEUNTJENS HARRY F 461 11:21:13
3306 ALMEIDA CARLOS MANUEL D 1027 11:21:20
3307 VERDOUW LINDA A 34 11:21:21
3308 MARCHAND REGIS D 1028 11:21:24
3309 KREUTZ ROB E 1 194 11:21:35
3310 TWINHOL HARKE F 462 11:21:39
3311 PLANKEN ERWIN E 1 195 11:21:40
3312 SNIJDERS BRAM D 1029 11:21:45
3313 GUIGUEN FRANCOIS F 463 11:21:46
3314 MENTION CHRISTIAN F 464 11:21:48
3315 FOLLI NINO F 465 11:22:07
3316 VERCAMMEN BENNY E 1 196 11:22:28
3317 SPANGSBERG MARTIN D 1030 11:22:33
3318 ZAGERS RIK E 1 197 11:22:47
3319 MONES CARILLA JORDI E 1 198 11:22:47
3320 VAN EGGERMONT BAS D 1031 11:22:52
3321 KIK DICK F 466 11:22:53
3322 CHRISTENSEN KIM FRANCK E 1 199 11:22:58
3323 MICHLENBORG KLAUS D 1032 11:23:10
3324 COOKE WILLIAM F 467 11:23:12
3325 GERRITS ERIK E 1 200 11:23:15
3326 FENNEMA AREND C 447 11:23:16
3327 MELLEGERS JAN E 1 201 11:23:21
3328 NIEUWENHUYS TON E 1 202 11:23:24
3329 BARBAGELATA PIERRE E 1 203 11:23:35
3330 DONZE CRIS E 1 204 11:23:37
3331 VAN GOOR JEROEN C 448 11:23:44
3332 LAMULLE JEROME C 449 11:23:46
3333 NIELSEN KJELD F 468 11:23:55
3334 GORIS JAN D 1033 11:24:01
3335 GRANT IAN G 76 11:24:11
3336 RIGG RODNEY G 77 11:24:11
3337 OSBORN DAVE F 469 11:24:14
3338 SMITH CRAIG D 1034 11:24:14
3339 DATSON EDWIN D 1035 11:24:14
3340 WARD DARREN E 1 205 11:24:18
3341 RUYSSCKAERT THIERRY D 1036 11:24:21
3342 DIS BERNARD E 1 206 11:24:22
3343 COTTON LUKE C 450 11:24:45
3344 STAM JAN G 78 11:24:46
3345 VAN DE GRAAF MARC D 1037 11:24:46
3346 CROW DAVID E 1 207 11:24:50
3347 ROSCO PRADO JUAN IGNACIO D 1038 11:24:51
3348 DE BOER E C 451 11:25:07
3349 E SCHUTTEN EDDIE F 470 11:25:07
3350 VAN DEN DUNGEN JOOP E 1 208 11:25:13
3351 NOIRBENNE JAMES F 471 11:25:14
3352 KELLEY PETER F 472 11:25:17
3353 GABBATO MASSIMO E 1 209 11:25:22
3354 VAN DEN HAUWE MICKAEL C 452 11:25:42
3355 ROYET ALAIN E 1 210 11:25:42
3356 SCHRIER JOOST C 453 11:25:44
3357 LEMIRE STEPHANE D 1039 11:25:46
3358 GUIGAL THIERRY E 1 211 11:25:55
3359 SPERLING DICK F 473 11:26:09
3360 HOMBROUX BART E 1 212 11:26:15
3361 VAN AERT JOS D 1040 11:26:17
3362 VANHELMONT PATRICK E 1 213 11:26:20
3363 KROES PETER D 1041 11:26:20
3364 VAN WIJLICK JAN E 1 214 11:26:29
3365 KROON ROBIN C 454 11:26:33
3366 AMERIJCKX JOS F 474 11:26:42
3367 HANLEY BEN D 1042 11:26:43
3368 DE KONING ARJAN C 455 11:26:44
3369 GERRITS HENK E 1 215 11:26:52
3370 BOHNE J.CLAUDE F 475 11:26:56
3371 RODRIGUEZ JOSE ANTONIO F 476 11:26:59
3372 CORBALAN RUIZ PEDRO E 1 216 11:27:00
3373 BAIXAMA SOSPEDRA DANI E 1 217 11:27:01
3374 DE LANGE MARK E 1 218 11:27:01
3375 FUMAGALLI PAOLO D 1043 11:27:05
3376 MARTINEZ HERNANZ JAIME E 1 219 11:27:08
3377 ZOETEWEIJ GERRIT E 1 220 11:27:11
3378 DE WINKEL ERIK E 1 221 11:27:12
3379 GREER RICHARD D 1044 11:27:12
3380 FERRERES BELTRAN JUANMA E 1 222 11:27:13
3381 JANSSEN J G 79 11:27:18
3382 OLSTHOORN HANS E 1 223 11:27:21
3383 SPETH PER E 1 224 11:27:26
3384 VAN DER MEULEN ANDRIES F 477 11:27:42
3385 SMITH OLE F 478 11:27:55
3386 ANDREU BERNARD F 479 11:28:03
3387 HURVATH GILLES E 1 225 11:28:08
3388 FREDERIKSEN PETER D 1045 11:28:08
3389 VAN OOSTVEEN MARCO D 1046 11:28:25
3390 LEINER DANIEL E 1 226 11:28:32
3391 DE VISSER DANIEL F 480 11:28:42
3392 KLAVER SJORS E 1 227 11:28:49
3393 BARRIE MICHAEL D 1047 11:28:53
3394 COLLINS KATIE A 35 11:28:55
3395 NEKKERS HERMAN E 1 228 11:29:00
3396 BAQUE CLAUDE F 481 11:29:04
3397 DORHOUT MEES ROLAND E 1 229 11:29:05
3398 SWALUS JEAN CLAUDE E 1 230 11:29:10
3399 SCHMITT ALFONS F 482 11:29:15
3400 BOEHRER JEAN MICHEL E 1 231 11:29:18
3401 VEENSTRA PAUL D 1048 11:29:22
3402 RABUT PHILIPPE E 1 232 11:29:37
3403 ZUCCHINI MASSIMILIANO E 1 233 11:29:47
3404 PIOTROWSKI MARIUSZ D 1049 11:29:58
3405 PEPELS MARIA AB 41 11:30:00
3406 SCHRIJVERS ERICA AB 42 11:30:00
3407 ROSTKJAER HENNING F 483 11:30:07
3408 PAUELS JOHAN E 1 234 11:30:12
3409 SJAUW KRISCHAN C 456 11:30:18
3410 SIVERTSEN HENRIK E 1 235 11:30:28
3411 ORME JAMES C 457 11:30:30
3412 VAN HILTEN CLIVE D 1050 11:30:31
3413 HEDDEMA HENK D 1051 11:30:31
3414 ANDERSEN JORGEN G 80 11:30:33
3415 COOK MICHAEL F 484 11:30:41
3416 SCAILTEUR LEON G 81 11:30:52
3417 PIENS HEDWIG E 1 236 11:31:05
3418 BROODCOORENS FILIP E 1 237 11:31:15
3419 DALHUIJSEN ANTON F 485 11:31:17
3420 BECKMANS KAREL F 486 11:31:18
3421 LEENEN BENNY D 1052 11:31:22
3422 BERG ANNETTE AB 43 11:31:26
3423 HEYMAN JENS C 458 11:31:27
3424 VAN DE POL HENK E 1 238 11:31:30
3425 VAN GENT JOS G 82 11:31:34
3426 VAN DE VELDE HELEEN A 36 11:31:36
3427 VAN LOON CARLO D 1053 11:31:38
3428 BOND MIKE F 487 11:31:46
3429 NIELSEN STEFAN E 1 239 11:32:05
3430 KOUDIJS GERARD E 1 240 11:32:08
3431 BECRET OLIVIER D 1054 11:32:10
3432 HANSEN STEEN E 1 241 11:32:12
3433 GAULE JEAN FRANCOIS E 1 242 11:32:19
3434 EZANIC MARC F 488 11:32:32
3435 ANDERSEN BJORN RONNY E 1 243 11:32:38
3436 ZUBELZU URZELAI ZIGOR D 1055 11:32:55
3437 ANCART JEAN LUC E 1 244 11:32:57
3438 MESKENS KOEN E 1 245 11:33:01
3439 VALANCE ALEXANDRE D 1056 11:33:07
3440 DE HERTOG DANIEL E 1 246 11:33:34
3441 MAHY VINCENT E 1 247 11:33:45
3442 LUME VINCENZO F 489 11:33:46
3443 VAN MULDERS GUY D 1057 11:33:47
3444 WINTERS HENRI F 490 11:34:12
3445 CLAEYS KURT E 1 248 11:34:17
3446 OOSTERHUIS HANS E 1 249 11:34:22
3447 VAN VUREN ROBIN E 1 250 11:34:22
3448 DEMILDT PATRICK F 491 11:34:22
3449 VAN VLERKEN IVO E 1 251 11:34:23
3450 STEENMAN GERT-JAN E 1 252 11:34:26
3451 RAJADELL VICIANO FRANCISCO JAVIER F 492 11:34:27
3452 GERRITS MATHIEU D 1058 11:34:29
3453 VAN DER HEYDEN LUDO E 1 253 11:34:29
3454 CALLEBAUT KATLEEN AB 44 11:34:31
3455 SWENNEN JOHNY E 1 254 11:34:36
3456 PAULSEN STEEN F 493 11:34:41
3457 HALDAGER NIELSEN CHRIS E 1 255 11:34:46
3458 SLEGH HARRY F 494 11:34:48
3459 DONALD PHILIP E 1 256 11:34:52
3460 VERDUIJN PS D 1059 11:34:57
3461 SARTORE FABRIZIO E 1 257 11:35:02
3462 CORNE PHILIPPE F 495 11:35:08
3463 DEVILEE PAUL E 1 258 11:35:19
3464 LOUIS PASCAL E 1 259 11:35:22
3465 GIRARDI GIANCARLO G 83 11:35:32
3466 RICHARD LUC E 1 260 11:35:34
3467 CRAMOIX PIERRE E 1 261 11:35:36
3468 KEMP STEPHEN E 1 262 11:35:40
3469 KRUISDIJK FRANK F 496 11:35:40
3470 JOURDAIN BERNARD G 84 11:35:44
3471 REGELINK HENK C 459 11:35:45
3472 SALANOVA ROCA ANTONI F 497 11:35:51
3473 DEN HARTOG HANS F 498 11:36:00
3474 BOMPAR JEAN PAUL E 1 263 11:36:04
3475 VISKENS PATRIK D 1060 11:36:10
3476 QUINTELIER GUNTHER D 1061 11:36:25
3477 BARNETT SAM C 460 11:36:30
3478 VAN SLEEN WIEBE D 1062 11:36:42
3479 STROEMSHOLT PREBEN F 499 11:36:49
3480 REMENTERIA CARLOS D 1063 11:36:54
3481 ESPINO DEL PINO JUAN FRANCISCO F 500 11:37:03
3482 AERTS WALTER C 461 11:37:18
3483 VAN OVERVELD DENNIS C 462 11:37:21
3484 VOORWINDE MARIEM F 501 11:37:23
3485 MARTENS HENK F 502 11:37:25
3486 LEIJEN DICK E 1 264 11:37:25
3487 ALLEBAS BURT D 1064 11:37:39
3488 VAN SWALM PETER D 1065 11:37:42
3489 KIJVERMAN JAN E 1 265 11:37:45
3490 THELOSEN CO F 503 11:37:50
3491 DE COEK FREDERIK C 463 11:37:50
3492 VAN HOECKE PIETER C 464 11:37:50
3493 PURRE ERIC J 20 11:38:15
3494 CATHUDAL PASCAL E 1 266 11:38:25
3495 GARCIA RAFANELL FRANCISCO F 504 11:38:36
3496 OOSTVOGEL PAUL F 505 11:38:43
3497 HAUBERG HANS D 1066 11:38:46
3498 RAFFIN GUILLAUME D 1067 11:38:49
3499 JANSEN ALEX E 1 267 11:39:08
3500 PALLARES VILA SERGI E 1 268 11:39:08
3501 PALLARES FARNOS JOSEP E 1 269 11:39:11
3502 THOUSING HANS F 506 11:39:19
3503 VAN DER WEELE JOEL C 465 11:39:21
3504 BABA YOSHIHISA E 1 270 11:39:22
3505 VAN VLIJMEN OLIVIER C 466 11:39:22
3506 VAN DIJK AZN ROEL F 507 11:39:23
3507 VERAART RUUD E 1 271 11:39:28
3508 VOSKAMP WOUTER C 467 11:39:28
3509 BRANDI LARS E 1 272 11:39:29
3510 SPRUIT THEO E 1 273 11:39:32
3511 ZEIMES GUY E 1 274 11:39:32
3512 GOREVAN DANIEL C 468 11:39:34
3513 VEHENT RIK E 1 275 11:39:55
3514 VAN BELZEN GILLES E 1 276 11:39:57
3515 THEUNISSEN PAUL F 508 11:39:59
3516 REGAD OLIVIER G 85 11:40:01
3517 ELLIOT DAVID E 1 277 11:40:05
3518 RUBIO FERNANDEZ SERGIO D 1068 11:40:15
3519 KING ALICE A 37 11:40:16
3520 SYCH GERD E 1 278 11:40:22
3521 TEN NOEVER DE BRAUW CHEFREN E 1 279 11:40:28
3522 SCHOEMAKER TEUN C 469 11:40:43
3523 PELLICCI SERGIO E 1 280 11:40:43
3524 VAN OORSCHOT PETER F 509 11:40:53
3525 FRAPPAT LAURENT E 1 281 11:40:57
3526 HOEKSEMA ROBERT D 1069 11:41:02
3527 VAN DIEPEN LEON D 1070 11:41:20
3528 BORST HAN F 510 11:41:23
3529 VAN ROSMALEN SJAAK E 1 282 11:41:23
3530 VANORMELINGEN PETER E 1 283 11:41:24
3531 VUIJK JAAP E 1 284 11:41:25
3532 MOLLER NIELSEN KLAUS E 1 285 11:41:34
3533 ENGSTROM KIM E 1 286 11:41:35
3534 MALEUX WIM F 511 11:41:41
3535 DE WAL BONNE F 512 11:41:49
3536 VANWYCK RIK E 1 287 11:41:55
3537 VAN DER HEYDEN JEROEN D 1071 11:41:55
3538 BEKKENK JAN F 513 11:41:56
3539 BOWERS DAVID E 1 288 11:41:59
3540 OLSEN JAN D 1072 11:42:07
3541 WESTRAN TOM C 470 11:42:18
3542 AUZENDE ALBERT G 86 11:42:42
3543 VAN VUREN RENE E 1 289 11:42:49
3544 VAN LEEUWEN RONALD E 1 290 11:42:52
3545 VAN DER VEKEN EMIEL C 471 11:43:03
3546 WILLIAMS CHRISTOPHE D 1073 11:43:03
3547 HEIN DENNIS C 472 11:43:08
3548 ROSSEWIJ PETER D 1074 11:43:12
3549 ALCADER RODA ADRIAN D 1075 11:43:12
3550 FERRERES ROCA JOSE ANGEL F 514 11:43:16
3551 GRANT JEFFREY D 1076 11:43:17
3552 WUBBEN PETER E 1 291 11:43:19
3553 FERRERES ROCA GABRIEL E 1 292 11:43:20
3554 MARCAUD GILLES F 515 11:43:24
3555 STEWART IAIN F 516 11:43:24
3556 BOISSIN DIDIER E 1 293 11:43:36
3557 HARTMAN HANS D 1077 11:43:39
3558 GONGUET LOUIS G 87 11:43:41
3559 ANDERSON JAMES G 88 11:43:43
3560 LOPEZ-LIUCHI JOSE D 1078 11:43:50
3561 VAN DER VALK SAM C 473 11:43:50
3562 BEL FRED E 1 294 11:43:51
3563 RAMIREZ LUNA JESUS F 517 11:44:04
3564 BERKELEY DAVID D 1079 11:44:07
3565 HAWTHORN IAIN E 1 295 11:44:41
3566 SMITH BRIAN E 1 296 11:44:42
3567 GREEN ANDREW E 1 297 11:44:45
3568 T SIOBBEL STEPHEN E 1 298 11:44:45
3569 HATTING MIKJEPPE F 518 11:44:56
3570 FUENTES GONZALEZ MIGUEL D 1080 11:44:57
3571 WARWICK STEVE E 1 299 11:44:59
3572 VAN SCHANDEVIJL STEFAAN E 1 300 11:44:59
3573 VAN DER LEUR JOHANNES F 519 11:45:03
3574 PILLON PASCAL E 1 301 11:45:13
3575 WESSELINK ERICA A 38 11:45:19
3576 SCHULTE TOON F 520 11:45:41
3577 HOFSTRA HANS E 1 302 11:45:46
3578 SYMULAK LILIAN D 1081 11:45:51
3579 FREDERIEKSE PHILIPPE E 1 303 11:45:51
3580 HARE SUSAN B 6 11:45:52
3581 GENO SERGE F 521 11:45:54
3582 O TOOLE PHILIP E 1 304 11:45:56
3583 ENGELN RICHARD E 1 305 11:46:01
3584 SORENSEN PER THY E 1 306 11:46:05
3585 HOEFMANN JEAN F 522 11:46:11
3586 CHAPARTEGUI INAKI D 1082 11:46:24
3587 HOOGENBOEZEM JAN WILLEM D 1083 11:46:36
3588 GUILLOREAU JEAN-CLAUDE F 523 11:46:36
3589 HENDRIKS DENNIS D 1084 11:46:45
3590 STEVENS STUART F 524 11:46:46
3591 GRAAS JEROEN E 1 307 11:46:53
3592 SANCHEZ PEREZ JOSE MIGUEL D 1085 11:46:55
3593 HARE JOHN F 525 11:46:59
3594 NUNEZ RUEDA JESUS D 1086 11:47:01
3595 STEWART ANDRE D 1087 11:47:02
3596 BOUVIER FREDERIC E 1 308 11:47:19
3597 JOSEP ARXE CREUS F 526 11:47:20
3598 HAUGE OLE E 1 309 11:47:22
3599 PERE BOIX BOIXADER F 527 11:47:28
3600 TWISS ERIC D 1088 11:47:52
3601 DEMUNTER GUY E 1 310 11:47:57
3602 MEESTERS JOOS C 474 11:48:31
3603 PERRACHE BERNARD G 89 11:48:32
3604 VANDENHURK MAYKEL C 475 11:48:36
3605 BRUIJNE DICK F 528 11:48:37
3606 VAN BERGEIJK SJAAK E 1 311 11:48:48
3607 BONNET MICHEL F 529 11:48:49
3608 POULET YVETTE B 7 11:49:00
3609 DE LANGE MARCEL E 1 312 11:49:14
3610 DAVIDSEN KIM E 1 313 11:49:15
3611 JUGAND DOMINIQUE E 1 314 11:49:20
3612 BELSACK BERNARD E 1 315 11:49:25
3613 WENS PETER E 1 316 11:49:27
3614 VERHOEVEN MARJOLEIN A 39 11:49:30
3615 VAN SPREEKEN ARDAAN C 476 11:49:55
3616 BEYENS JEROEN C 477 11:49:59
3617 VAN LELYVELD FLORIS D 1089 11:49:59
3618 VANDERPOORTEN STEVEN C 478 11:50:00
3619 DEYKIN TIM E 1 317 11:50:00
3620 HERMENS ELLEN A 40 11:50:27
3621 HANQUET NICO D 1090 11:50:28
3622 JUSTIENT MICHAEL D 1091 11:50:28
3623 JAARSMA PETER F 530 11:50:37
3624 FISCHER HANS E 1 318 11:50:39
3625 VAN LOOY DAVY D 1092 11:50:46
3626 VALANCE ANTOINE G 90 11:50:48
3627 WAWRZYNOWSKI PATRICK F 531 11:51:07
3628 VAN KRALINGEN MARK C 479 11:51:14
3629 PAMEIJER REMMO D 1093 11:51:15
3630 DE MIDDELAER ERIK D 1094 11:51:17
3631 VAN DER MEIJ ANDEL F 532 11:51:41
3632 GELEYNSE RONALD-JAN E 1 319 11:51:46
3633 EDUARD KICK D 1095 11:51:54
3634 OUGIER SEBASTIEN D 1096 11:51:55
3635 SIEMINSKI ALEKSANDER F 533 11:51:56
3636 MADDOX BRYAN E 1 320 11:52:11
3637 PETERS SERVAAS F 534 11:52:16
3638 VAN HECK DANNY E 1 321 11:52:17
3639 GRIJMANS JAAP E 1 322 11:52:20
3640 KOKSHOORN AD F 535 11:52:22
3641 JOYNSON JOHN G 91 11:52:23
3642 TER LAAK EDUARD D 1097 11:52:45
3643 AUBERT PIERRE E 1 323 11:53:22
3644 NAVARRO CATALA FERRAN G 92 11:53:28
3645 SMITH BARRY F 536 11:53:28
3646 VAN DER BERG ARIE F 537 11:53:34
3647 NEDERPELT CARLO D 1098 11:53:39
3648 LOWIK MARCEL E 1 324 11:53:50
3649 BISHOP JOHN F 538 11:54:03
3650 NOTEBAERT STEVEN D 1099 11:54:21
3651 CHAMOURIN MARC E 1 325 11:54:26
3652 TERRY ANDY F 539 11:54:34
3653 DITTMAR REMCO C 480 11:54:34
3654 OTTEN MARC D 1100 11:54:34
3655 CIELSIESKI GRZEGORZ F 540 11:54:35
3656 PETIT ANDRE E 1 326 11:54:41
3657 SVENSSON SVEN E 1 327 11:54:57
3658 VOORJANS PAUL E 1 328 11:55:00
3659 BUTTIN HERVE F 541 11:55:04
3660 PEYS MARTIN E 1 329 11:55:17
3661 ROBINSON KAREN A 41 11:55:20
3662 PETERS PEDRO E 1 330 11:55:29
3663 BARNEL FABIENNE B 8 11:55:31
3664 DANI BARRANCO ESTEVEZ C 481 11:55:32
3665 BARNEL BERNARD F 542 11:55:34
3666 ANTONIO LOPEZ SANTIAGO D 1101 11:55:38
3667 JOAN RAMON CARPIO URENA F 543 11:55:38
3668 FELIPE LARA SALAS D 1102 11:55:46
3669 PATTON DAVID D 1103 11:55:48
3670 ANDREU ILLAMOLA SERRA E 1 331 11:55:48
3671 VERSTRATEN HANS F 544 11:56:03
3672 GRANT BECKY AB 45 11:56:20
3673 TEN HAG WOUTER D 1104 11:56:27
3674 SPRIET WILLY E 1 332 11:56:35
3675 LECONTE JEAN PAUL F 545 11:56:40
3676 DURANT FRANCK D 1105 11:56:54
3677 RICE CLIFF E 1 333 11:57:02
3678 VAN DE PYL JAAP E 1 334 11:57:08
3679 VAN OSCH ROBERT D 1106 11:57:11
3680 SWALES TIMOTHY E 1 335 11:57:37
3681 ENGELKE RAINIER D 1107 11:57:41
3682 WATSON PETER C 482 11:57:47
3683 DE WINTER PAUL E 1 336 11:57:51
3684 VAN DEN HEUVEL EDUARD E 1 337 11:57:55
3685 HAPPE BENT E 1 338 11:58:10
3686 MATTHIJSSEN KEES E 1 339 11:58:15
3687 MITCHELL TIM E 1 340 11:58:23
3688 CAMPANALES JOSE E 1 341 11:58:26
3689 BAGGETT GEOFF F 546 11:59:04
3690 PIZARRO MANUEL E 1 342 11:59:25
3691 VAN DEN BRANDE JAN E 1 343 11:59:25
3692 VAN OVERBEEKE KOO F 547 11:59:27
3693 JANSEN HERWIN D 1108 11:59:57
3694 GIESEN THEO F 548 11:59:58
3695 WILLEMSE HANS C 483 11:59:58
3696 GIESEN NAK C 484 11:59:59
3697 VOERMANS CARLOS D 1109 12:00:19
3698 MORESTIN FREDERIC D 1110 12:00:24
3699 KEHR EDWARD D 1111 12:00:26
3700 JORIS LUC E 1 344 12:00:29
3701 VAN DEN BERK RENE C 485 12:00:34
3702 LIETAER LUC E 1 345 12:00:40
3703 GJESING LOTTE AB 46 12:00:42
3704 ANSPACH JEAN MICHAL F 549 12:00:45
3705 LABLEE PIERRE G 93 12:01:10
3706 MECHIELSEN JURJEN C 486 12:01:10
3707 RICHARDS TREVOR D 1112 12:01:15
3708 VALLENTIN METTE A 42 12:01:16
3709 DEGEE JOHNY E 1 346 12:02:07
3710 HANSEN FLEMMING F 550 12:02:07
3711 IRONS ANDY E 1 347 12:02:17
3712 VAN ZUILEN HANS E 1 348 12:02:17
3713 SEUGERS FREEK C 487 12:02:18
3714 VOCHTEN HANS C 488 12:02:23
3715 DE JONG JONAS D 1113 12:02:25
3716 CARNEY DAVID D 1114 12:02:26
3717 DE MEO LUCA E 1 349 12:02:46
3718 JANSEN AAD E 1 350 12:02:54
3719 AKKERMANS MATH G 94 12:02:59
3720 VECKENEER MARC D 1115 12:03:01
3721 OLSEN HENRIK D 1116 12:03:09
3722 PACHOT SYLVAIN E 1 351 12:03:15
3723 DAVENNE TRISTAN D 1117 12:03:25
3724 VAN VUGT JEROEN D 1118 12:03:34
3725 THEVENET GUY F 551 12:03:52
3726 SERRANO ORTEGA ARMANDO F 552 12:04:06
3727 VAN EETVELDE JO E 1 352 12:04:08
3728 RABELINK DIRK D 1119 12:04:14
3729 DE KINDER PAUL E 1 353 12:04:18
3730 VAN GASTEL PASCAL D 1120 12:04:25
3731 BROER NICOLAS F 553 12:04:29
3732 REMIJN RENE D 1121 12:04:43
3733 STONE KARL E 1 354 12:04:45
3734 GORINSEK GUIDO F 554 12:05:00
3735 BLANC BERNARD E 1 355 12:05:01
3736 DE GROOT WIL B 9 12:05:02
3737 MORTELMANS DOMINIEK E 1 356 12:05:04
3738 HERZEEL RONNY E 1 357 12:05:10
3739 VAN ZWAM EVERT E 1 358 12:05:19
3740 WILSON MARK D 1122 12:05:19
3741 SKOVBJERG SVEND F 555 12:05:24
3742 PENTHUM ROY C 489 12:05:35
3743 VAN SOEST JOHAN E 1 359 12:05:37
3744 TERLOO AD E 1 360 12:05:46
3745 JEHEE EDUARD E 1 361 12:05:53
3746 GRIVOT OLIVIER E 1 362 12:05:59
3747 KROOM THOMAS F 556 12:06:03
3748 ALBIZU NICOLAS E 1 363 12:06:18
3749 GALLAGHER PETER E 1 364 12:06:20
3750 UGALDE ENEKO D 1123 12:06:32
3751 PAPEN FERDI E 1 365 12:06:34
3752 BOUTEN THEO G 95 12:07:02
3753 PAPOT SAMUEL C 490 12:07:03
3754 HOTTING ARIE E 1 366 12:07:08
3755 ARAN JOSE LLUIS F 557 12:07:25
3756 ALLEN NEIL D 1124 12:07:42
3757 QUIST F. ROBERT D 1125 12:07:56
3758 VAN DEN BEEMT PEPIJN D 1126 12:07:58
3759 TINNISWOOD RUSSELL D 1127 12:08:01
3760 DE MAEYER JOS F 558 12:08:25
3761 BERTRAND JEAN JACQUES F 559 12:08:28
3762 POCOCK JOHN E 1 367 12:08:34
3763 DE BACKER DAMIAAN E 1 368 12:08:39
3764 HORNE STEPHEN E 1 369 12:08:42
3765 HANSEN LONE B 10 12:09:11
3766 VAN DER VALK AAT G 96 12:09:15
3767 ZANDBERG BOREAS E 1 370 12:09:18
3768 JONGPIER PETER F 560 12:09:25
3769 JEPPESEN LARS G 97 12:09:38
3770 GUTES GARCIA JORDI E 1 371 12:09:54
3771 VIAL IVAR D 1128 12:10:01
3772 PLUIJMERT JASPER D 1129 12:10:02
3773 JORGENSEN PER E 1 372 12:10:08
3774 CHRISTIANSEN BRIAN E 1 373 12:10:20
3775 VAN DER MEER ROB E 1 374 12:10:37
3776 VAN OVEREEM BAS E 1 375 12:10:39
3777 VAN DER MAAS HEER D 1130 12:10:46
3778 PRUVOST CHRISTOPHE D 1131 12:10:50
3779 IGUTEEFFELEN SJAAK F 561 12:11:04
3780 SCHULTE ROEL E 1 376 12:11:14
3781 VEKMEEK TOON F 562 12:11:50
3782 WERKMAN RAMON D 1132 12:11:50
3783 COSTA LAFARGA JOSE F 563 12:12:10
3784 VAN MAASAKKERS PIET F 564 12:12:23
3785 VERBOORD MAARTEN D 1133 12:12:40
3786 MENDIZABAL GALARRAGA JESUS MARI F 565 12:12:46
3787 VANDENBERGHE CASPER D 1134 12:12:47
3788 RINCK RICHARD E 1 377 12:13:00
3789 SPEKSNIJDER GERT JAN D 1135 12:13:14
3790 SCOOT JAMES D 1136 12:13:28
3791 MOZOS Martinez Santiago D 1137 12:13:35
3792 VERBEEK SJEF F 566 12:13:35
3793 IRVINE ANNETTE AB 47 12:13:40
3794 VAN DEN NOBELEN FRANS J 21 12:13:56
3795 UHL JORIS D 1138 12:13:59
3796 SLOTH LISBJERG PIA AB 48 12:14:18
3797 SCHMITT LAURENT E 1 378 12:14:24
3798 PELLIKAAN EDWIN D 1139 12:14:28
3799 JANSEN MARK C 491 12:14:34
3800 GALLAGHER STEPHEN E 1 379 12:14:36
3801 HOMBROUCKX MICHEL D 1140 12:14:44
3802 PARMENTIER DAVID D 1141 12:14:46
3803 GRYMONPREZ JEAN FRANCOIS D 1142 12:14:48
3804 PINTO JOAO PAULO F 567 12:14:49
3805 ALONSO ALEXANDER D 1143 12:14:49
3806 VANDENHURK COR F 568 12:14:54
3807 BAAS DICK F 569 12:14:56
3808 BODEWES WIENKE F 570 12:15:01
3809 CARRASCO BARRERO HIPOLITO E 1 380 12:15:01
3810 TANSLEY ANTHONY E 1 381 12:15:09
3811 VAN DER PUTTEN MARK D 1144 12:15:23
3812 CASEY CHARLES E 1 382 12:15:30
3813 VLEMINCKX WIM E 1 383 12:15:36
3814 VINCENT PATRICK F 571 12:15:45
3815 HEYBROEK GILLES D 1145 12:15:58
3816 ANDERSEN TOMMY E 1 384 12:16:09
3817 OFFRINGA AART E 1 385 12:16:14
3818 DHAENEKINT MARC F 572 12:16:44
3819 VERDUIJN PG F 573 12:16:53
3820 BLOEMENDAAL MARC D 1146 12:16:57
3821 VAN DOORN MICHEL D 1147 12:16:58
3822 SANDERS JEROEN KRIJN D 1148 12:17:01
3823 MARCET SOLER RAFEL E 1 386 12:17:02
3824 JANSSEN NICOLE AB 49 12:17:14
3825 PASCAL CLAUDE F 574 12:17:19
3826 THOMPSON IAN D 1149 12:17:27
3827 BERTHELOT NICOLAS C 492 12:17:31
3828 MARSDEN CHRISTOPHER D 1150 12:17:42
3829 VAN LOENEN GER F 575 12:17:44
3830 LEFAS CHRISTOS F 576 12:18:30
3831 DOES DIMITRI D 1151 12:18:58
3832 VAN PELT JAN F 577 12:18:59
3833 LARSEN NICOLAI F 578 12:19:11
3834 GILLIAN SMITH AB 50 12:19:15
3835 BARTLEY MARK D 1152 12:19:59
3836 KREUTZ FRANK C 493 12:20:17
3837 FULLER ANNE AB 51 12:20:34
3838 HOL HANS E 1 387 12:20:35
3839 THOMPSON STEVEN D 1153 12:20:43
3840 GILLARD LAURENT E 1 388 12:20:52
3841 VERHOOSEL CHARLES G 98 12:21:04
3842 SEVEREYNS FONS E 1 389 12:21:05
3843 VAN DER HEIDEN PETER E 1 390 12:21:25
3844 LEMMENS MARC D 1154 12:21:47
3845 DAVIS KARI ANN AB 52 12:21:48
3846 WARD MIKE F 579 12:21:54
3847 MIGNONE LUCIEN E 1 391 12:22:38
3848 DEWAELE ERIK E 1 392 12:23:00
3849 DE WAELE XAVIER D 1155 12:23:02
3850 STEENO GUIDO D 1156 12:23:02
3851 CHRISTIE ALASTAIR ROBERT D 1157 12:23:11
3852 HOEFSMIT NORBERT E 1 393 12:23:13
3853 TEN HOOR EMMELIEN AB 53 12:23:14
3854 SIMMONS MARK F 580 12:23:16
3855 HAMMING JUST E 1 394 12:23:28
3856 BOS MARION AB 54 12:23:29
3857 VAN DER VELDE THEO E 1 395 12:23:30
3858 VAN DER WAL EGBERT D 1158 12:23:31
3859 SHERKEY PETER D 1159 12:23:50
3860 CARMODY PATRICK F 581 12:24:03
3861 MILLER SIMON D 1160 12:24:42
3862 ENGELBRECHT STEPHANUS E 1 396 12:24:46
3863 FOURNIER PIERRE C 494 12:24:48
3864 VERWERFT JAN D 1161 12:25:11
3865 MASTENBROEK JAN E 1 397 12:25:39
3866 HARTSTRA PIET G 99 12:25:56
3867 MARTIN VALENCIA FRANCISCO D 1162 12:26:06
3868 VAN DEN SANDE TIM D 1163 12:26:11
3869 VEKEMANS TOM D 1164 12:26:16
3870 FILLEUL DOMINIQUE F 582 12:27:11
3871 SKOVGAARD FLEMMING E 1 398 12:27:12
3872 HOLST PETER E 1 399 12:27:24
3873 KLAVER MARCEL E 1 400 12:27:32
3874 VAN BAUWEL SVEN D 1165 12:27:43
3875 AKINS JOHN G 100 12:28:09
3876 LORENTZEN JOHAN F 583 12:28:18
3877 RODON HOWARD F 584 12:28:19
3878 JANSEN DIRK D 1166 12:28:29
3879 KUITENBROUWER JAN HENDRIK D 1167 12:28:45
3880 GROEN ROB E 1 401 12:28:59
3881 STRIKWERDA SIPKE F 585 12:29:08
3882 THIJS RONY E 1 402 12:29:29
3883 ORENA IDIAQUEZ SEBASTIAN G 101 12:29:57
3884 PLUIM JAN E 1 403 12:30:00
3885 ETXANIZ LESAKA MAMEN AB 55 12:30:01
3886 BRANDS PIET F 586 12:30:02
3887 GERAINT WILLIAMS D 1168 12:30:10
3888 THOMAS KEVIN D 1169 12:30:15
3889 LOUVET THOMAS C 495 12:30:20
3890 MOLENAAR ANDRE F 587 12:30:54
3891 CUSVELLER JOHAN D 1170 12:31:03
3892 THEBES WILCO D 1171 12:31:06
3893 CARDON JEAN-PAUL D 1172 12:31:36
3894 STRUIJK LEO E 1 404 12:32:00
3895 VAN STEEKELENBURG MARCEL E 1 405 12:32:01
3896 GRESSER MARCEL F 588 12:32:19
3897 VILLANUEVA IBANEZ JOSE IGNACIO E 1 406 12:32:38
3898 LE LOUET GERARD F 589 12:32:46
3899 ORMAETXEA URIARTE GAIZKA E 1 407 12:32:54
3900 THOMAS DAVID D 1173 12:32:58
3901 JACKSON ALEX D 1174 12:32:59
3902 BERRY RICHARD D 1175 12:33:00
3903 DAUMALLE BERTRAND D 1176 12:33:21
3904 GEURTS LUDO F 590 12:33:34
3905 FLIM RITSERT D 1177 12:33:56
3906 SWALES MICHAEL F 591 12:34:00
3907 HIGGINS PAUL D 1178 12:34:03
3908 CHARTIER GILLES E 1 408 12:34:06
3909 PAREL BERNARD E 1 409 12:34:30
3910 SMALLMAB OLIVIER F 592 12:34:55
3911 KLOMP BART C 496 12:35:09
3912 BULENS TOM D 1179 12:35:09
3913 BROUWERS OSCAR E 1 410 12:35:13
3914 LEEMKER TON E 1 411 12:35:54
3915 LABASSE HENRI G 102 12:36:09
3916 QUIST OLE E 1 412 12:36:10
3917 SMITS ROB F 593 12:36:21
3918 BOSEBOON NIELS D 1180 12:36:28
3919 GORKA MARKOS D 1181 12:36:39
3920 VAN DEN BOSSCHE GUY E 1 413 12:36:53
3921 VAN WYRYAARDEN RICHARD D 1182 12:36:59
3922 VAN VERSENDAAL HANS F 594 12:37:37
3923 WRIGHT MARTIN E 1 414 12:37:43
3924 PEDROTTI CLAUDIO E 1 415 12:38:15
3925 CORNU MARC D 1183 12:38:27
3926 SORIANO MOYA DANIEL D 1184 12:38:28
3927 POPPE FILIP D 1185 12:38:53
3928 WILLIS MATTHEW C 497 12:39:25
3929 VERDOODT GEERT E 1 416 12:39:32
3930 MARCHER LARS E 1 417 12:39:39
3931 VERGAUWE FRANK F 595 12:39:44
3932 CLARKE RICHARD E 1 418 12:40:18
3933 TEERNSTRA BONNIE E 1 419 12:40:23
3934 CANDRIES JO D 1186 12:40:46
3935 JACOBSEN RASMUS D 1187 12:40:47
3936 TRANI JEAN LOUIS E 1 420 12:41:10
3937 MOORE NICK E 1 421 12:41:17
3938 KRISTENSEN JIMMI E 1 422 12:41:20
3939 TEN HOVE JANSEN BERNARD D 1188 12:41:30
3940 BETHOUX MARC E 1 423 12:41:53
3941 GRIJMANS HEIN D 1189 12:41:57
3942 SOUREN ARMAND E 1 424 12:42:10
3943 WATERVAL DOMINIQUE C 498 12:42:21
3944 MCLOUGHLIN LIAM E 1 425 12:42:25
3945 VAN SUCHTELEN SAN D 1190 12:42:56
3946 TUYA JESUS VALERO D 1191 12:43:23
3947 ANDRIESSEN PAUL F 596 12:44:09
3948 STAATS LAURA A 43 12:45:00
3949 STUKART BEN F 597 12:45:36
3950 BOERSMA JAAP F 598 12:46:15
3951 VILLARD ANTOINE E 1 426 12:46:24
3952 REINHARDT JAN F 599 12:46:26
3953 AUDREN JEAN FRANCOIS F 600 12:46:30
3954 REERINK NILS D 1192 12:47:08
3955 KRUIJER JOHN E 1 427 12:47:49
3956 BALDWIN NIGEL E 1 428 12:49:08
3957 MEAKIN DAVID D 1193 12:49:12
3958 DUSSILLOLS LAURENT D 1194 12:49:35
3959 VAN DER ERTWEGH VALERIE A 44 12:49:38
3960 OORD NICO E 1 429 12:49:45
3961 PELLET GUY F 601 12:49:52
3962 BARENTS RONALD G 103 12:49:56
3963 KATO TSUYOSHI D 1195 12:50:48
3964 PRIE DANIEL F 602 12:51:03
3965 TRANBERG JESPER E 1 430 12:52:44
3966 MICHIELS KRIS E 1 431 12:53:22
3967 VAN OERS ERWIN D 1196 12:53:55
3968 CORNELISSEN HARRIE F 603 12:55:02
3969 SLUITER APPIE E 1 432 12:55:03
3970 GROAT IAN D 1197 12:56:56
3971 CHRISTENSEN FRANTS E 1 433 12:58:06
3972 SORENSEN JAN F 604 12:59:25
3973 SORENSEN MONA B 11 12:59:26
3974 VAN DAM ROB E 1 434 12:59:37
3975 DE VRIES RINA B 12 12:59:39
3976 VERBRUGGE ROEL D 1198 13:00:28
3977 SIMMONDS NORMAN G 104 13:00:34
3978 YOUNG KEVIN F 605 13:00:45
3979 MCGOWAN ROY E 1 435 13:01:19
3980 BOUDEWIJN LAHEIJ D 1199 13:01:19
3981 VAN LAGEN MARTIN E 1 436 13:01:23
3982 KOTZE JEREMY F 606 13:01:25
3983 BUHL STEEN E 1 437 13:03:01
3984 CANCLINI ARRIGO E 1 438 13:03:26
3985 CORDIVAL CHRISTELLE AB 56 13:03:31
3986 TON MARTIN F 607 13:04:13
3987 DOBBE FRANS G 105 13:04:13
3988 OSKAM BASTIAAN D 1200 13:04:36
3989 DE GRAEF HANS E 1 439 13:04:52
3990 PARK RICHARD E 1 440 13:05:33
3991 BERIRO DARREN D 1201 13:12:29
3992 OZOLINS LOREEN AB 57 13:13:06
3993 ROUGERT MICHEL F 608 13:13:18
3994 MATTHIJSSEN GYDO C 499 13:15:41
3995 NILLESSEN HENNIE E 1 441 13:15:48
3996 ECKERSALL MARTIN E 1 442 13:16:27
3997 DOBBELAER TIM D 1202 13:17:29
3998 CLOOSTERMAN JEROEN D 1203 13:22:48
3999 VAN MANEN VRONIE F 609 13:24:41
4000 AUTRIQUE MAURICIO D 1204 13:28:50
4001 KLESMAN KEES F 610 13:31:38
4002 PETERSEN SONNY E 1 443 13:44:09
4003 WOODHOUSE GEOFFREY G 106 13:52:12

Haut 









Haut  
 Espacio privado   Derechos de autor-Copyright : haga clic ici para leer !